Location: Newark
(46.7000°N, 60.6000°W)
Time: 05:02:49
(UTC+00:00)

Transit 2A Rocket - Pass Details

Date: 04 November 2020
Orbit: 588 x 914 km, 66.7° (Epoch: 29 November)

Event Time Altitude Azimuth Distance (km) Brightness Sun altitude
Rises 12:31:12 0° 222° (SW) 3,537 8.4 13.9°
Reaches altitude 10° 12:33:46 10° 225° (SW) 2,593 7.8 14.2°
Maximum altitude 12:39:48 64° 307° (NW) 979 5.5 15.0°
Drops below altitude 10° 12:45:34 10° 29° (NNE) 2,484 7.5 15.7°
Sets 12:48:00 0° 33° (NNE) 3,379 8.2 16.0°
